Tracking 20232 objects as of 18-Jan-2020
HD Live streaming from Space Station
objects crossing your sky now

FENGYUN 1C DEB

Track FENGYUN 1C DEB now!
10-day predictions


NORAD ID: 38723
Int'l Code: 1999-025ETQ
Perigee: 762.5 km
Apogee: 827.1 km
Inclination: 99.5 °
Period: 100.6 minutes
Semi major axis: 7165 km
RCS: 0.0134 m2 (small)
Launch date: May 10, 1999
Source: People's Republic of China (PRC)
Launch site: Taiyaun Space Center, China (TSC)

Note: This is SATELLITE DEBRIS
aabbcc
Your satellite tracking list
Your tracking list is empty




NASA's NSSDC Master Catalog

Two Line Element Set (TLE):
1 38723U 99025ETQ 20017.34606770  .00000678  00000-0  27296-3 0  9991
2 38723  99.4764  60.0560 0045054 161.7861 198.4945 14.31218754462287
Source of the keplerian elements: AFSPC